Terug naar catalogus

NOAA 16 DEB

ActiefSSO
NORAD 41226·DEBRIS·🇺🇸 United States

Gelanceerd Sep 21, 2000 vanaf Vandenberg Space Force Base

Loading…

Volgende Passages (komende 24 uur)

TLE

VersSource: Space-Track

Epoch: Sep 14, 2026, 13:59 UTC

1 41226U 00055EF  26257.58307786  .00001525  00000-0  75113-3 0  9994
2 41226  98.6977 297.6944 0027455 359.2341   0.8789 14.18828787553520

Volg NOAA 16 DEB in realtime met AllMySat

Download on the App Store